| time (UTC) | temp F | wind direction | speed knots | gust knots | rain 1hr in | rain 24hr in | rain mn in | humidity % | barometer mb |
| 20260502123506 | 69 | 211 | 7.0 | 13.0 | 0.00 | 0.00 | 0.00 | 48 | 1014.0 |
| 20260502123005 | 69 | 217 | 7.8 | 13.0 | 0.00 | 0.00 | 0.00 | 49 | 1014.0 |
| 20260502121504 | 69 | 211 | 7.0 | 13.0 | 0.00 | 0.00 | 0.00 | 48 | 1014.0 |
| 20260502121005 | 69 | 215 | 8.7 | 14.8 | 0.00 | 0.00 | 0.00 | 48 | 1015.0 |
| 20260502120505 | 69 | 218 | 7.8 | 14.8 | 0.00 | 0.00 | 0.00 | 48 | 1015.0 |
| 20260502115505 | 69 | 207 | 8.7 | 15.6 | 0.00 | 0.00 | 0.00 | 50 | 1015.0 |
| 20260502115005 | 69 | 207 | 8.7 | 15.6 | 0.00 | 0.00 | 0.00 | 48 | 1015.0 |
| 20260502114506 | 69 | 204 | 7.8 | 13.9 | 0.00 | 0.00 | 0.00 | 48 | 1015.0 |
| 20260502114005 | 69 | 205 | 7.8 | 15.6 | 0.00 | 0.00 | 0.00 | 49 | 1015.0 |
| 20260502113504 | 69 | 208 | 8.7 | 15.6 | 0.00 | 0.00 | 0.00 | 47 | 1015.0 |
| 20260502113006 | 69 | 206 | 7.8 | 14.8 | 0.00 | 0.00 | 0.00 | 47 | 1015.0 |
| 20260502112504 | 69 | 210 | 7.8 | 14.8 | 0.00 | 0.00 | 0.00 | 47 | 1015.0 |
| 20260502112005 | 69 | 215 | 8.7 | 16.5 | 0.00 | 0.00 | 0.00 | 46 | 1015.0 |
| 20260502111505 | 69 | 210 | 8.7 | 16.5 | 0.00 | 0.00 | 0.00 | 46 | 1015.0 |
| 20260502111006 | 69 | 208 | 7.8 | 13.0 | 0.00 | 0.00 | 0.00 | 46 | 1015.0 |
| 20260502110505 | 68 | 207 | 9.6 | 20.9 | 0.00 | 0.00 | 0.00 | 47 | 1015.0 |
| 20260502105506 | 68 | 212 | 8.7 | 16.5 | 0.00 | 0.00 | 0.00 | 45 | 1015.0 |
| 20260502104505 | 68 | 208 | 7.0 | 12.2 | 0.00 | 0.00 | 0.00 | 47 | 1015.0 |
| 20260502104006 | 68 | 207 | 7.8 | 17.4 | 0.00 | 0.00 | 0.00 | 47 | 1015.0 |
| 20260502103504 | 67 | 208 | 8.7 | 17.4 | 0.00 | 0.00 | 0.00 | 47 | 1015.0 |
| 20260502103004 | 67 | 209 | 8.7 | 15.6 | 0.00 | 0.00 | 0.00 | 47 | 1015.0 |
| 20260502102505 | 67 | 212 | 8.7 | 14.8 | 0.00 | 0.00 | 0.00 | 47 | 1016.0 |
| 20260502101504 | 67 | 215 | 8.7 | 16.5 | 0.00 | 0.00 | 0.00 | 46 | 1016.0 |
| 20260502101005 | 67 | 207 | 8.7 | 16.5 | 0.00 | 0.00 | 0.00 | 47 | 1016.0 |
| 20260502100504 | 67 | 211 | 9.6 | 14.8 | 0.00 | 0.00 | 0.00 | 47 | 1016.0 |
| 20260502091504 | 67 | 200 | 7.8 | 14.8 | 0.00 | 0.00 | 0.00 | 47 | 1016.0 |
| 20260502091004 | 67 | 199 | 7.8 | 13.0 | 0.00 | 0.00 | 0.00 | 47 | 1015.0 |
| 20260502090506 | 66 | 196 | 8.7 | 19.1 | 0.00 | 0.00 | 0.00 | 47 | 1015.0 |
| 20260502071504 | 63 | 189 | 7.0 | 12.2 | 0.00 | 0.00 | 0.00 | 52 | 1016.0 |
| 20260502071005 | 63 | 178 | 7.0 | 12.2 | 0.00 | 0.00 | 0.00 | 52 | 1016.0 |
| 20260502070504 | 63 | 190 | 7.0 | 9.6 | 0.00 | 0.00 | 0.00 | 52 | 1016.0 |
| 20260502065005 | 62 | 186 | 7.0 | 13.9 | 0.00 | 0.00 | 0.00 | 54 | 1017.0 |
| 20260502064505 | 61 | 186 | 6.1 | 12.2 | 0.00 | 0.00 | 0.00 | 56 | 1017.0 |
| 20260502063504 | 61 | 195 | 7.8 | 15.6 | 0.00 | 0.00 | 0.00 | 56 | 1017.0 |
| 20260502063004 | 60 | 191 | 7.0 | 12.2 | 0.00 | 0.00 | 0.00 | 56 | 1017.0 |
| 20260502062505 | 60 | 190 | 7.0 | 12.2 | 0.00 | 0.00 | 0.00 | 57 | 1017.0 |
| 20260502062005 | 60 | 188 | 7.0 | 12.2 | 0.00 | 0.00 | 0.00 | 58 | 1017.0 |
| 20260502061504 | 59 | 186 | 7.0 | 16.5 | 0.00 | 0.00 | 0.00 | 58 | 1017.0 |
| 20260502061004 | 59 | 188 | 7.8 | 16.5 | 0.00 | 0.00 | 0.00 | 59 | 1017.0 |
| 20260502060505 | 58 | 187 | 7.8 | 16.5 | 0.00 | 0.00 | 0.00 | 59 | 1017.0 |
| 20260502060005 | 58 | 198 | 7.0 | 11.3 | 0.00 | 0.00 | 0.00 | 60 | 1017.0 |
| 20260502054005 | 56 | 175 | 8.7 | 12.2 | 0.00 | 0.00 | 0.00 | 63 | 1017.0 |
| 20260502053505 | 55 | 174 | 8.7 | 13.0 | 0.00 | 0.00 | 0.00 | 63 | 1017.0 |
| 20260502053005 | 55 | 174 | 7.8 | 16.5 | 0.00 | 0.00 | 0.00 | 64 | 1017.0 |
| 20260502052505 | 54 | 169 | 7.8 | 16.5 | 0.00 | 0.00 | 0.00 | 65 | 1018.0 |
| 20260502052005 | 54 | 179 | 7.0 | 12.2 | 0.00 | 0.00 | 0.00 | 65 | 1018.0 |
| 20260502051504 | 54 | 185 | 5.2 | 11.3 | 0.00 | 0.00 | 0.00 | 65 | 1018.0 |
| 20260502051004 | 53 | 171 | 6.1 | 13.9 | 0.00 | 0.00 | 0.00 | 66 | 1018.0 |
| 20260502050504 | 53 | 171 | 7.8 | 13.9 | 0.00 | 0.00 | 0.00 | 66 | 1018.0 |
| 20260502050004 | 53 | 173 | 7.8 | 12.2 | 0.00 | 0.00 | 0.00 | 67 | 1018.0 |
| 20260502045505 | 52 | 171 | 7.8 | 12.2 | 0.00 | 0.00 | 0.00 | 68 | 1018.0 |
| 20260502044505 | 51 | 165 | 7.0 | 12.2 | 0.00 | 0.00 | 0.00 | 70 | 1018.0 |
| 20260502044005 | 51 | 155 | 7.0 | 12.2 | 0.00 | 0.00 | 0.00 | 71 | 1018.0 |
| 20260502043505 | 50 | 158 | 7.0 | 12.2 | 0.00 | 0.00 | 0.00 | 72 | 1018.0 |
| 20260502043005 | 49 | 153 | 7.0 | 11.3 | 0.00 | 0.00 | 0.00 | 74 | 1018.0 |
| 20260502042504 | 48 | 141 | 7.0 | 11.3 | 0.00 | 0.00 | 0.00 | 75 | 1018.0 |
| 20260502042004 | 48 | 138 | 6.1 | 8.7 | 0.00 | 0.00 | 0.00 | 76 | 1018.0 |
| 20260502041005 | 46 | 125 | 6.1 | 10.4 | 0.00 | 0.00 | 0.00 | 77 | 1017.0 |
| 20260502040504 | 46 | 117 | 7.0 | 10.4 | 0.00 | 0.00 | 0.00 | 76 | 1017.0 |
| 20260502040005 | 46 | 112 | 7.0 | 8.7 | 0.00 | 0.00 | 0.00 | 76 | 1017.0 |
| 20260502035504 | 46 | 112 | 6.1 | 8.7 | 0.00 | 0.00 | 0.00 | 76 | 1018.0 |
| 20260502035006 | 46 | 116 | 5.2 | 7.0 | 0.00 | 0.00 | 0.00 | 76 | 1018.0 |
| 20260502034505 | 45 | 120 | 5.2 | 7.8 | 0.00 | 0.00 | 0.00 | 76 | 1018.0 |
| 20260502034005 | 45 | 117 | 6.1 | 7.8 | 0.00 | 0.00 | 0.00 | 76 | 1018.0 |
| 20260502033005 | 46 | 118 | 6.1 | 7.0 | 0.00 | 0.00 | 0.00 | 75 | 1018.0 |
| 20260502032505 | 46 | 121 | 5.2 | 7.8 | 0.00 | 0.00 | 0.00 | 75 | 1019.0 |
| 20260502032005 | 46 | 119 | 5.2 | 7.8 | 0.00 | 0.00 | 0.00 | 75 | 1019.0 |
| 20260502031504 | 46 | 115 | 5.2 | 7.0 | 0.00 | 0.00 | 0.00 | 74 | 1019.0 |
| 20260502030005 | 47 | 145 | 4.3 | 6.1 | 0.00 | 0.00 | 0.00 | 74 | 1019.0 |
| 20260502025504 | 47 | 152 | 4.3 | 6.1 | 0.00 | 0.00 | 0.00 | 74 | 1019.0 |
| 20260502023504 | 48 | 177 | 3.5 | 8.7 | 0.00 | 0.00 | 0.00 | 74 | 1019.0 |
| 20260502023006 | 48 | 182 | 3.5 | 8.7 | 0.00 | 0.00 | 0.00 | 75 | 1019.0 |
| 20260502022504 | 48 | 171 | 3.5 | 7.0 | 0.00 | 0.00 | 0.00 | 75 | 1019.0 |
| 20260502022005 | 48 | 167 | 2.6 | 7.0 | 0.00 | 0.00 | 0.00 | 75 | 1019.0 |
| 20260502021004 | 48 | 175 | 3.5 | 6.1 | 0.00 | 0.00 | 0.00 | 75 | 1020.0 |
| 20260502020504 | 47 | 174 | 4.3 | 7.8 | 0.00 | 0.00 | 0.00 | 76 | 1020.0 |
| 20260502020005 | 47 | 176 | 2.6 | 7.8 | 0.00 | 0.00 | 0.00 | 72 | 1020.0 |
| 20260502015505 | 48 | 183 | 1.7 | 5.2 | 0.00 | 0.00 | 0.00 | 71 | 1020.0 |
| 20260502015004 | 49 | 172 | 4.3 | 11.3 | 0.00 | 0.00 | 0.00 | 72 | 1020.0 |
| 20260502014005 | 49 | 173 | 5.2 | 8.7 | 0.00 | 0.00 | 0.00 | 73 | 1021.0 |
| 20260502013504 | 50 | 174 | 5.2 | 8.7 | 0.00 | 0.00 | 0.00 | 74 | 1021.0 |
| 20260502013005 | 50 | 179 | 5.2 | 8.7 | 0.00 | 0.00 | 0.00 | 73 | 1021.0 |
| 20260502012504 | 50 | 184 | 4.3 | 8.7 | 0.00 | 0.00 | 0.00 | 73 | 1020.0 |
| 20260502012006 | 50 | 179 | 4.3 | 8.7 | 0.00 | 0.00 | 0.00 | 73 | 1020.0 |
| 20260502011505 | 50 | 179 | 5.2 | 8.7 | 0.00 | 0.00 | 0.00 | 73 | 1020.0 |
| 20260502011004 | 50 | 178 | 5.2 | 8.7 | 0.00 | 0.00 | 0.00 | 73 | 1020.0 |
| 20260502010505 | 50 | 178 | 4.3 | 8.7 | 0.00 | 0.00 | 0.00 | 73 | 1020.0 |
| 20260502010005 | 50 | 181 | 5.2 | 9.6 | 0.00 | 0.00 | 0.00 | 73 | 1020.0 |
| 20260502005504 | 50 | 178 | 5.2 | 9.6 | 0.00 | 0.00 | 0.00 | 74 | 1020.0 |
| 20260502005005 | 50 | 183 | 4.3 | 7.8 | 0.00 | 0.00 | 0.00 | 73 | 1020.0 |
| 20260502004005 | 50 | 189 | 5.2 | 9.6 | 0.00 | 0.00 | 0.00 | 74 | 1020.0 |
| 20260502003505 | 50 | 193 | 5.2 | 8.7 | 0.00 | 0.00 | 0.00 | 74 | 1020.0 |
| 20260502003004 | 49 | 196 | 4.3 | 8.7 | 0.00 | 0.00 | 0.00 | 74 | 1020.0 |
| 20260502002505 | 49 | 199 | 3.5 | 7.0 | 0.00 | 0.00 | 0.00 | 72 | 1020.0 |
| 20260502002005 | 50 | 198 | 3.5 | 8.7 | 0.00 | 0.00 | 0.00 | 72 | 1020.0 |
| 20260502001505 | 50 | 194 | 4.3 | 8.7 | 0.00 | 0.00 | 0.00 | 73 | 1020.0 |
| 20260502000504 | 49 | 183 | 5.2 | 9.6 | 0.00 | 0.00 | 0.00 | 72 | 1021.0 |
| 20260502000005 | 49 | 177 | 5.2 | 9.6 | 0.00 | 0.00 | 0.00 | 72 | 1021.0 |
| 20260501235504 | 49 | 177 | 6.1 | 10.4 | 0.00 | 0.00 | 0.00 | 73 | 1021.0 |
| 20260501235005 | 48 | 175 | 7.0 | 12.2 | 0.00 | 0.00 | 0.00 | 74 | 1021.0 |
| 20260501234505 | 47 | 175 | 6.1 | 12.2 | 0.00 | 0.00 | 0.00 | 78 | 1021.0 |
| 20260501233504 | 45 | 142 | 1.7 | 6.1 | 0.00 | 0.00 | 0.00 | 78 | 1021.0 |
| 20260501233005 | 45 | 152 | 0.9 | 6.1 | 0.00 | 0.00 | 0.00 | 76 | 1021.0 |
| 20260501232505 | 45 | 158 | 3.5 | 7.0 | 0.00 | 0.00 | 0.00 | 77 | 1021.0 |
| 20260501231505 | 44 | 155 | 4.3 | 6.1 | 0.00 | 0.00 | 0.00 | 79 | 1021.0 |
| 20260501231005 | 44 | 148 | 1.7 | 4.3 | 0.00 | 0.00 | 0.00 | 77 | 1022.0 |
| 20260501230505 | 44 | 0 | 0.0 | 0.0 | 0.00 | 0.00 | 0.00 | 75 | 1022.0 |
| 20260501230005 | 44 | 0 | 0.0 | 0.0 | 0.00 | 0.00 | 0.00 | 75 | 1022.0 |
| 20260501225504 | 44 | 0 | 0.0 | 0.0 | 0.00 | 0.00 | 0.00 | 76 | 1022.0 |
| 20260501224005 | 45 | 109 | 4.3 | 6.1 | 0.00 | 0.00 | 0.00 | 73 | 1022.0 |
| 20260501223504 | 45 | 107 | 4.3 | 6.1 | 0.00 | 0.00 | 0.00 | 73 | 1022.0 |
| 20260501223004 | 46 | 100 | 1.7 | 6.1 | 0.00 | 0.00 | 0.00 | 73 | 1022.0 |
| 20260501222505 | 46 | 68 | 0.0 | 2.6 | 0.00 | 0.00 | 0.00 | 72 | 1022.0 |
| 20260501222005 | 46 | 110 | 1.7 | 6.1 | 0.00 | 0.00 | 0.00 | 73 | 1022.0 |
| 20260501221504 | 46 | 112 | 4.3 | 7.0 | 0.00 | 0.00 | 0.00 | 72 | 1022.0 |
| 20260501221005 | 46 | 117 | 5.2 | 7.0 | 0.00 | 0.00 | 0.00 | 73 | 1022.0 |
| 20260501220504 | 47 | 118 | 5.2 | 7.0 | 0.00 | 0.00 | 0.00 | 72 | 1022.0 |
| 20260501220005 | 47 | 116 | 6.1 | 7.0 | 0.00 | 0.00 | 0.00 | 72 | 1022.0 |
| 20260501215505 | 47 | 118 | 6.1 | 7.0 | 0.00 | 0.00 | 0.00 | 72 | 1022.0 |
| 20260501215005 | 47 | 114 | 5.2 | 7.0 | 0.00 | 0.00 | 0.00 | 72 | 1022.0 |
| 20260501214505 | 47 | 113 | 5.2 | 6.1 | 0.00 | 0.00 | 0.00 | 72 | 1022.0 |
| 20260501214005 | 47 | 115 | 5.2 | 7.0 | 0.00 | 0.00 | 0.00 | 72 | 1023.0 |
| 20260501213504 | 47 | 117 | 6.1 | 7.0 | 0.00 | 0.00 | 0.00 | 71 | 1023.0 |
| 20260501213005 | 47 | 117 | 5.2 | 7.0 | 0.00 | 0.00 | 0.00 | 72 | 1023.0 |
| 20260501212504 | 47 | 105 | 2.6 | 7.0 | 0.00 | 0.00 | 0.00 | 71 | 1022.0 |
| 20260501212005 | 47 | 84 | 2.6 | 5.2 | 0.00 | 0.00 | 0.00 | 72 | 1022.0 |
| 20260501211504 | 48 | 102 | 4.3 | 6.1 | 0.00 | 0.00 | 0.00 | 73 | 1022.0 |
| 20260501211005 | 48 | 115 | 6.1 | 7.0 | 0.00 | 0.00 | 0.00 | 71 | 1021.0 |
| 20260501210504 | 48 | 115 | 5.2 | 7.0 | 0.00 | 0.00 | 0.00 | 71 | 1021.0 |
| 20260501210005 | 48 | 111 | 2.6 | 7.0 | 0.00 | 0.00 | 0.00 | 70 | 1021.0 |
| 20260501205504 | 48 | 0 | 0.0 | 0.0 | 0.00 | 0.00 | 0.00 | 67 | 1021.0 |
| 20260501205004 | 48 | 0 | 0.0 | 0.0 | 0.00 | 0.00 | 0.00 | 67 | 1021.0 |
| 20260501203504 | 49 | 0 | 0.0 | 0.0 | 0.00 | 0.00 | 0.00 | 64 | 1022.0 |
| 20260501203005 | 50 | 117 | 0.9 | 4.3 | 0.00 | 0.00 | 0.00 | 62 | 1022.0 |
| 20260501202505 | 51 | 129 | 1.7 | 5.2 | 0.00 | 0.00 | 0.00 | 61 | 1022.0 |
| 20260501202005 | 51 | 155 | 3.5 | 7.8 | 0.00 | 0.00 | 0.00 | 60 | 1022.0 |
| 20260501201005 | 51 | 156 | 6.1 | 8.7 | 0.00 | 0.00 | 0.00 | 61 | 1022.0 |
| 20260501200505 | 51 | 154 | 6.1 | 8.7 | 0.00 | 0.00 | 0.00 | 62 | 1022.0 |
| 20260501200005 | 50 | 157 | 4.3 | 7.0 | 0.00 | 0.00 | 0.00 | 63 | 1022.0 |
| 20260501195005 | 51 | 0 | 0.0 | 0.0 | 0.00 | 0.00 | 0.00 | 62 | 1022.0 |
| 20260501194504 | 51 | 171 | 0.9 | 3.5 | 0.00 | 0.00 | 0.00 | 60 | 1022.0 |
| 20260501194005 | 51 | 172 | 1.7 | 7.0 | 0.00 | 0.00 | 0.00 | 59 | 1022.0 |
| 20260501193505 | 51 | 167 | 2.6 | 7.0 | 0.00 | 0.00 | 0.00 | 59 | 1022.0 |
| 20260501193006 | 52 | 158 | 1.7 | 6.1 | 0.00 | 0.00 | 0.00 | 60 | 1022.0 |
| 20260501192504 | 52 | 155 | 0.9 | 3.5 | 0.00 | 0.00 | 0.00 | 59 | 1023.0 |
| 20260501192005 | 52 | 162 | 0.9 | 4.3 | 0.00 | 0.00 | 0.00 | 59 | 1023.0 |
| 20260501191504 | 53 | 165 | 0.9 | 4.3 | 0.00 | 0.00 | 0.00 | 58 | 1023.0 |
| 20260501191006 | 53 | 166 | 0.9 | 4.3 | 0.00 | 0.00 | 0.00 | 58 | 1023.0 |
| 20260501190505 | 53 | 163 | 0.9 | 3.5 | 0.00 | 0.00 | 0.00 | 57 | 1023.0 |
| 20260501185504 | 54 | 0 | 0.0 | 0.0 | 0.00 | 0.00 | 0.00 | 56 | 1023.0 |
| 20260501185005 | 55 | 183 | 0.9 | 6.1 | 0.00 | 0.00 | 0.00 | 56 | 1023.0 |
| 20260501184006 | 55 | 187 | 3.5 | 7.0 | 0.00 | 0.00 | 0.00 | 54 | 1023.0 |
| 20260501183505 | 55 | 189 | 3.5 | 7.0 | 0.00 | 0.00 | 0.00 | 55 | 1023.0 |
| 20260501183005 | 56 | 187 | 3.5 | 7.0 | 0.00 | 0.00 | 0.00 | 54 | 1023.0 |
| 20260501182504 | 56 | 186 | 2.6 | 6.1 | 0.00 | 0.00 | 0.00 | 54 | 1023.0 |
| 20260501182005 | 56 | 189 | 1.7 | 4.3 | 0.00 | 0.00 | 0.00 | 54 | 1023.0 |
| 20260501181504 | 56 | 194 | 0.0 | 3.5 | 0.00 | 0.00 | 0.00 | 54 | 1023.0 |
| 20260501180005 | 57 | 219 | 0.9 | 5.2 | 0.00 | 0.00 | 0.00 | 53 | 1023.0 |
| 20260501175505 | 57 | 219 | 0.9 | 5.2 | 0.00 | 0.00 | 0.00 | 53 | 1023.0 |
| 20260501175005 | 57 | 230 | 0.9 | 3.5 | 0.00 | 0.00 | 0.00 | 52 | 1023.0 |
| 20260501174504 | 58 | 223 | 0.9 | 3.5 | 0.00 | 0.00 | 0.00 | 51 | 1023.0 |
| 20260501174005 | 58 | 203 | 1.7 | 6.1 | 0.00 | 0.00 | 0.00 | 50 | 1023.0 |
| 20260501173005 | 59 | 224 | 2.6 | 6.1 | 0.00 | 0.00 | 0.00 | 50 | 1023.0 |
| 20260501172504 | 59 | 226 | 3.5 | 6.1 | 0.00 | 0.00 | 0.00 | 49 | 1023.0 |
| 20260501172005 | 59 | 220 | 4.3 | 7.0 | 0.00 | 0.00 | 0.00 | 48 | 1023.0 |
| 20260501171504 | 59 | 216 | 5.2 | 7.8 | 0.00 | 0.00 | 0.00 | 48 | 1023.0 |
| 20260501171005 | 60 | 215 | 4.3 | 7.8 | 0.00 | 0.00 | 0.00 | 48 | 1024.0 |
| 20260501170505 | 60 | 213 | 4.3 | 7.8 | 0.00 | 0.00 | 0.00 | 48 | 1024.0 |
| 20260501170005 | 61 | 212 | 4.3 | 7.0 | 0.00 | 0.00 | 0.00 | 48 | 1024.0 |
| 20260501165004 | 61 | 217 | 4.3 | 7.0 | 0.00 | 0.00 | 0.00 | 47 | 1024.0 |
| 20260501164505 | 62 | 216 | 3.5 | 7.0 | 0.00 | 0.00 | 0.00 | 48 | 1024.0 |
| 20260501164005 | 62 | 214 | 1.7 | 5.2 | 0.00 | 0.00 | 0.00 | 49 | 1024.0 |
| 20260501163505 | 62 | 216 | 1.7 | 4.3 | 0.00 | 0.00 | 0.00 | 49 | 1024.0 |
| 20260501162504 | 62 | 216 | 1.7 | 4.3 | 0.00 | 0.00 | 0.00 | 50 | 1024.0 |
| 20260501162005 | 62 | 227 | 1.7 | 4.3 | 0.00 | 0.00 | 0.00 | 50 | 1024.0 |
| 20260501161504 | 62 | 238 | 0.9 | 5.2 | 0.00 | 0.00 | 0.00 | 49 | 1024.0 |
| 20260501161005 | 62 | 226 | 2.6 | 6.1 | 0.00 | 0.00 | 0.00 | 50 | 1023.0 |
| 20260501160505 | 62 | 228 | 2.6 | 6.1 | 0.00 | 0.00 | 0.00 | 49 | 1023.0 |
| 20260501155505 | 62 | 232 | 3.5 | 7.0 | 0.00 | 0.00 | 0.00 | 52 | 1024.0 |
| 20260501155005 | 62 | 223 | 4.3 | 7.0 | 0.00 | 0.00 | 0.00 | 51 | 1024.0 |
| 20260501154504 | 62 | 219 | 3.5 | 6.1 | 0.00 | 0.00 | 0.00 | 52 | 1024.0 |
| 20260501154005 | 62 | 226 | 2.6 | 6.1 | 0.00 | 0.00 | 0.00 | 52 | 1024.0 |
| 20260501153505 | 62 | 233 | 3.5 | 6.1 | 0.00 | 0.00 | 0.00 | 50 | 1024.0 |
| 20260501153005 | 62 | 229 | 3.5 | 6.1 | 0.00 | 0.00 | 0.00 | 49 | 1024.0 |
| 20260501152504 | 62 | 227 | 3.5 | 5.2 | 0.00 | 0.00 | 0.00 | 49 | 1025.0 |
| 20260501152005 | 62 | 224 | 3.5 | 5.2 | 0.00 | 0.00 | 0.00 | 50 | 1025.0 |
| 20260501151505 | 62 | 226 | 3.5 | 7.0 | 0.00 | 0.00 | 0.00 | 51 | 1025.0 |
| 20260501150504 | 63 | 229 | 3.5 | 7.0 | 0.00 | 0.00 | 0.00 | 51 | 1025.0 |